,,,PA_Meas_PMT16A,,PR_Meas_QMR101_102,,RH_Meas_QMH101,,SR_Meas_QMS101,,TA_Meas_QMH101,,GenWind,,GenWind,
date,time,status,PA,status,PR,status,RH,status,SR,status,TA,status,DirAvg,status,SpdAvg,
2009-10-13, 00:00:04,VALID,1004.89,VALID,0,VALID,85.7715,VALID,0.100563,VALID,25.4753,VALID,337,VALID,0.667578,
2009-10-13, 00:01:04,VALID,1004.9,VALID,0,VALID,85.6952,VALID,0.100563,VALID,25.4753,VALID,329,VALID,0.577344,
2009-10-13, 00:02:04,VALID,1004.87,VALID,0,VALID,85.7028,VALID,0,VALID,25.4948,VALID,329,VALID,0.535937,
2009-10-13, 00:03:04,VALID,1004.87,VALID,0,VALID,85.7486,VALID,0,VALID,25.4734,VALID,327,VALID,0.501172,
2009-10-13, 00:04:04,VALID,1004.85,VALID,0,VALID,85.7028,VALID,0.100563,VALID,25.4948,VALID,332,VALID,0.314453,
2009-10-13, 00:05:04,VALID,1004.84,VALID,0,VALID,85.6418,VALID,0.100563,VALID,25.4948,VALID,332,VALID,0.250391,
2009-10-13, 00:06:04,VALID,1004.82,VALID,0,VALID,85.5579,VALID,0.100563,VALID,25.4948,VALID,3,VALID,0.19375,
2009-10-13, 00:07:04,VALID,1004.81,VALID,0,VALID,85.5808,VALID,0,VALID,25.5142,VALID,2,VALID,0.421875,
2009-10-13, 00:08:04,VALID,1004.8,VALID,0,VALID,85.5503,VALID,0.100563,VALID,25.5142,VALID,349,VALID,0.566016,
2009-10-13, 00:09:04,VALID,1004.78,VALID,0,VALID,85.4892,VALID,0.100563,VALID,25.5142,VALID,353,VALID,0.540625,
2009-10-13, 00:10:04,VALID,1004.77,VALID,0,VALID,85.5503,VALID,0.100563,VALID,25.5142,VALID,354,VALID,0.528125,
2009-10-13, 00:11:04,VALID,1004.76,VALID,0,VALID,85.6113,VALID,0.100563,VALID,25.5142,VALID,354,VALID,0.10625,
2009-10-13, 00:12:04,VALID,1004.71,VALID,0,VALID,85.6952,VALID,0.100563,VALID,25.5142,VALID,354,VALID,0,
2009-10-13, 00:13:04,VALID,1004.7,VALID,0,VALID,85.9393,VALID,0,VALID,25.4753,VALID,354,VALID,0,
2009-10-13, 00:14:04,VALID,1004.7,VALID,0,VALID,86.2369,VALID,0,VALID,25.4363,VALID,354,VALID,0,
2009-10-13, 00:15:04,VALID,1004.67,VALID,0,VALID,86.4123,VALID,0,VALID,25.3974,VALID,354,VALID,0,
2009-10-13, 00:16:04,VALID,1004.67,VALID,0,VALID,86.687,VALID,0,VALID,25.337,VALID,354,VALID,0,
2009-10-13, 00:17:04,VALID,1004.63,VALID,0,VALID,86.9235,VALID,0.100563,VALID,25.3,VALID,354,VALID,0,
2009-10-13, 00:18:04,VALID,1004.62,VALID,0,VALID,87.0532,VALID,0,VALID,25.2202,VALID,354,VALID,0,
2009-10-13, 00:19:04,VALID,1004.6,VALID,0,VALID,87.3659,VALID,0.100563,VALID,25.2027,VALID,354,VALID,0,
2009-10-13, 00:20:04,VALID,1004.6,VALID,0,VALID,87.5719,VALID,0.100563,VALID,25.1423,VALID,354,VALID,0,
2009-10-13, 00:21:04,VALID,1004.58,VALID,0,VALID,87.6482,VALID,0,VALID,25.1248,VALID,354,VALID,0,
2009-10-13, 00:22:04,VALID,1004.58,VALID,0,VALID,87.8618,VALID,0,VALID,25.1053,VALID,354,VALID,0,
2009-10-13, 00:23:04,VALID,1004.52,VALID,0,VALID,87.9305,VALID,0,VALID,25.0858,VALID,354,VALID,0,
2009-10-13, 00:24:04,VALID,1004.51,VALID,0,VALID,88.0678,VALID,0,VALID,25.0663,VALID,354,VALID,0,
2009-10-13, 00:25:04,VALID,1004.51,VALID,0,VALID,88.0525,VALID,0.100563,VALID,25.0469,VALID,354,VALID,0,
2009-10-13, 00:26:04,VALID,1004.44,VALID,0,VALID,88.2127,VALID,0.100563,VALID,25.0255,VALID,354,VALID,0,
2009-10-13, 00:27:04,VALID,1004.41,VALID,0,VALID,88.4264,VALID,0,VALID,25.0274,VALID,354,VALID,0,
2009-10-13, 00:28:04,VALID,1004.38,VALID,0,VALID,88.6857,VALID,0,VALID,24.9885,VALID,354,VALID,0,
2009-10-13, 00:29:04,VALID,1004.36,VALID,0,VALID,89.0595,VALID,0,VALID,24.93,VALID,354,VALID,0,
2009-10-13, 00:30:04,VALID,1004.36,VALID,0,VALID,89.4105,VALID,0,VALID,24.8892,VALID,354,VALID,0,
2009-10-13, 00:31:04,VALID,1004.32,VALID,0,VALID,89.6927,VALID,0,VALID,24.8132,VALID,354,VALID,0,
2009-10-13, 00:32:04,VALID,1004.33,VALID,0,VALID,89.9521,VALID,0.100563,VALID,24.7353,VALID,354,VALID,0,
2009-10-13, 00:33:04,VALID,1004.28,VALID,0,VALID,90.2649,VALID,0,VALID,24.6964,VALID,354,VALID,0,
2009-10-13, 00:34:04,VALID,1004.27,VALID,0,VALID,90.4785,VALID,0,VALID,24.6185,VALID,354,VALID,0,
2009-10-13, 00:35:04,VALID,1004.23,VALID,0,VALID,90.6998,VALID,0,VALID,24.5796,VALID,354,VALID,0,
2009-10-13, 00:36:04,VALID,1004.25,VALID,0,VALID,90.9057,VALID,0.100563,VALID,24.5212,VALID,354,VALID,0,
2009-10-13, 00:37:04,VALID,1004.25,VALID,0,VALID,91.188,VALID,0,VALID,24.4609,VALID,354,VALID,0,
2009-10-13, 00:38:04,VALID,1004.22,VALID,0,VALID,91.3406,VALID,0,VALID,24.4628,VALID,354,VALID,0,
2009-10-13, 00:39:04,VALID,1004.24,VALID,0,VALID,91.4626,VALID,0,VALID,24.4433,VALID,354,VALID,0,
2009-10-13, 00:40:04,VALID,1004.21,VALID,0,VALID,91.5771,VALID,0,VALID,24.4238,VALID,354,VALID,0,
2009-10-13, 00:41:04,VALID,1004.2,VALID,0,VALID,91.7144,VALID,0,VALID,24.3849,VALID,354,VALID,0,
2009-10-13, 00:42:04,VALID,1004.19,VALID,0,VALID,91.8594,VALID,0,VALID,24.3849,VALID,354,VALID,0,
2009-10-13, 00:43:04,VALID,1004.15,VALID,0,VALID,91.9738,VALID,0,VALID,24.3441,VALID,354,VALID,0.391797,
2009-10-13, 00:44:04,VALID,1004.15,VALID,0,VALID,92.0424,VALID,0,VALID,24.3459,VALID,345,VALID,0.39375,
2009-10-13, 00:45:04,VALID,1004.12,VALID,0,VALID,92.0424,VALID,0,VALID,24.3654,VALID,338,VALID,0.171484,
2009-10-13, 00:46:05,VALID,1004.08,VALID,0,VALID,91.9738,VALID,0,VALID,24.3654,VALID,338,VALID,0.457422,
2009-10-13, 00:47:05,VALID,1004.02,VALID,0,VALID,92.0653,VALID,0,VALID,24.3654,VALID,344,VALID,0.449219,
2009-10-13, 00:48:05,VALID,1003.99,VALID,0,VALID,91.9967,VALID,0,VALID,24.4043,VALID,343,VALID,0.430859,
2009-10-13, 00:49:05,VALID,1003.98,VALID,0,VALID,91.8288,VALID,0.100563,VALID,24.4628,VALID,343,VALID,0.423047,
2009-10-13, 00:50:05,VALID,1003.96,VALID,0,VALID,91.6991,VALID,0,VALID,24.4822,VALID,343,VALID,0.489453,
2009-10-13, 00:51:05,VALID,1003.89,VALID,0,VALID,91.6839,VALID,0,VALID,24.4841,VALID,343,VALID,0.0234375,
2009-10-13, 00:52:05,VALID,1003.85,VALID,0,VALID,91.6915,VALID,0,VALID,24.4628,VALID,343,VALID,0.00585938,
2009-10-13, 00:53:05,VALID,1003.86,VALID,0,VALID,91.6457,VALID,0,VALID,24.4609,VALID,343,VALID,0.1375,
2009-10-13, 00:54:05,VALID,1003.86,VALID,0,VALID,91.5771,VALID,0,VALID,24.4804,VALID,343,VALID,0,
2009-10-13, 00:55:05,VALID,1003.81,VALID,0,VALID,91.5008,VALID,0,VALID,24.5017,VALID,343,VALID,0.244531,
2009-10-13, 00:56:05,VALID,1003.83,VALID,0,VALID,91.4169,VALID,0,VALID,24.5406,VALID,343,VALID,0.546094,
2009-10-13, 00:57:05,VALID,1003.81,VALID,0,VALID,91.4245,VALID,0,VALID,24.5601,VALID,343,VALID,0.471484,
2009-10-13, 00:58:05,VALID,1003.79,VALID,0,VALID,91.2643,VALID,0,VALID,24.6185,VALID,343,VALID,0.201172,
2009-10-13, 00:59:05,VALID,1003.8,VALID,0,VALID,91.0125,VALID,0.100563,VALID,24.6574,VALID,343,VALID,0,
2009-10-13, 01:00:05,VALID,1003.8,VALID,0,VALID,90.9134,VALID,0,VALID,24.6769,VALID,304,VALID,0.587891,
2009-10-13, 01:01:05,VALID,1003.77,VALID,0,VALID,90.7074,VALID,0,VALID,24.7159,VALID,342,VALID,0.425781,
2009-10-13, 01:02:05,VALID,1003.75,VALID,0,VALID,90.6082,VALID,0,VALID,24.7353,VALID,342,VALID,0.284766,
2009-10-13, 01:03:05,VALID,1003.75,VALID,0,VALID,90.5243,VALID,0,VALID,24.7548,VALID,342,VALID,0.0871094,
2009-10-13, 01:04:05,VALID,1003.71,VALID,0,VALID,90.4862,VALID,0,VALID,24.7743,VALID,342,VALID,0.255469,
2009-10-13, 01:05:05,VALID,1003.73,VALID,0,VALID,90.5014,VALID,0,VALID,24.7743,VALID,342,VALID,0.3625,
2009-10-13, 01:06:05,VALID,1003.69,VALID,0,VALID,90.5319,VALID,0.100563,VALID,24.7919,VALID,342,VALID,0.339844,
2009-10-13, 01:07:05,VALID,1003.7,VALID,0,VALID,90.387,VALID,0,VALID,24.8327,VALID,342,VALID,0.148438,
2009-10-13, 01:08:05,VALID,1003.69,VALID,0,VALID,90.3336,VALID,0,VALID,24.8522,VALID,352,VALID,0.648438,
2009-10-13, 01:09:05,VALID,1003.72,VALID,0,VALID,90.2191,VALID,0,VALID,24.8892,VALID,346,VALID,0.645703,
2009-10-13, 01:10:05,VALID,1003.7,VALID,0,VALID,90.0208,VALID,0,VALID,24.9476,VALID,345,VALID,0.524219,
2009-10-13, 01:11:05,VALID,1003.68,VALID,0,VALID,89.9216,VALID,0,VALID,24.9885,VALID,344,VALID,0.607422,
2009-10-13, 01:12:05,VALID,1003.69,VALID,0,VALID,89.8758,VALID,0,VALID,25.006,VALID,345,VALID,0.657031,
2009-10-13, 01:13:05,VALID,1003.66,VALID,0,VALID,89.6546,VALID,0,VALID,25.0858,VALID,350,VALID,0.888672,
2009-10-13, 01:14:05,VALID,1003.65,VALID,0,VALID,89.3418,VALID,0,VALID,25.1423,VALID,351,VALID,0.669922,
2009-10-13, 01:15:05,VALID,1003.65,VALID,0,VALID,88.968,VALID,0,VALID,25.263,VALID,356,VALID,0.974219,
2009-10-13, 01:16:05,VALID,1003.65,VALID,0,VALID,88.495,VALID,0,VALID,25.339,VALID,348,VALID,0.880469,
2009-10-13, 01:17:05,VALID,1003.63,VALID,0,VALID,88.0449,VALID,0,VALID,25.4169,VALID,355,VALID,0.809375,
2009-10-13, 01:18:05,VALID,1003.62,VALID,0,VALID,87.6863,VALID,0,VALID,25.4753,VALID,1,VALID,0.762109,
2009-10-13, 01:19:05,VALID,1003.6,VALID,0,VALID,87.3125,VALID,0,VALID,25.5337,VALID,356,VALID,0.464453,
2009-10-13, 01:20:05,VALID,1003.62,VALID,0,VALID,87.16,VALID,0,VALID,25.5532,VALID,356,VALID,0.199609,
2009-10-13, 01:21:05,VALID,1003.59,VALID,0,VALID,87.1142,VALID,0,VALID,25.5513,VALID,333,VALID,0.170703,
2009-10-13, 01:22:05,VALID,1003.58,VALID,0,VALID,87.0913,VALID,0,VALID,25.5727,VALID,333,VALID,0.14375,
2009-10-13, 01:23:05,VALID,1003.55,VALID,0,VALID,87.1523,VALID,0,VALID,25.5727,VALID,333,VALID,0.00117188,
2009-10-13, 01:24:05,VALID,1003.55,VALID,0,VALID,87.015,VALID,0,VALID,25.5318,VALID,338,VALID,0.208203,
2009-10-13, 01:25:05,VALID,1003.54,VALID,0,VALID,87.0303,VALID,0,VALID,25.5318,VALID,315,VALID,0.598047,
2009-10-13, 01:26:05,VALID,1003.53,VALID,0,VALID,86.8624,VALID,0,VALID,25.5727,VALID,292,VALID,0.232422,
2009-10-13, 01:27:05,VALID,1003.53,VALID,0,VALID,86.8624,VALID,0,VALID,25.5727,VALID,292,VALID,0.150781,
2009-10-13, 01:28:05,VALID,1003.51,VALID,0,VALID,86.9235,VALID,0,VALID,25.5532,VALID,292,VALID,0.0316406,
2009-10-13, 01:29:05,VALID,1003.49,VALID,0,VALID,87.015,VALID,0,VALID,25.5337,VALID,292,VALID,0.382422,
2009-10-13, 01:30:05,VALID,1003.48,VALID,0,VALID,87.1066,VALID,0,VALID,25.5337,VALID,292,VALID,0.198047,
2009-10-13, 01:31:05,VALID,1003.45,VALID,0,VALID,87.1218,VALID,0,VALID,25.5142,VALID,292,VALID,0.155078,
2009-10-13, 01:32:05,VALID,1003.45,VALID,0,VALID,87.2591,VALID,0,VALID,25.4948,VALID,292,VALID,0.0046875,
2009-10-13, 01:33:05,VALID,1003.45,VALID,0,VALID,87.3049,VALID,0,VALID,25.4558,VALID,328,VALID,0.564453,
2009-10-13, 01:34:05,VALID,1003.45,VALID,0,VALID,87.4346,VALID,0,VALID,25.4363,VALID,341,VALID,0.475,
2009-10-13, 01:35:05,VALID,1003.44,VALID,0,VALID,87.6101,VALID,0,VALID,25.4169,VALID,335,VALID,0.342187,
2009-10-13, 01:36:05,VALID,1003.44,VALID,0,VALID,87.7474,VALID,0,VALID,25.3974,VALID,335,VALID,0.183984,
2009-10-13, 01:37:05,VALID,1003.44,VALID,0,VALID,87.8923,VALID,0,VALID,25.3779,VALID,335,VALID,0.223047,
2009-10-13, 01:38:05,VALID,1003.45,VALID,0,VALID,87.9534,VALID,0,VALID,25.339,VALID,335,VALID,0.214844,
2009-10-13, 01:39:05,VALID,1003.44,VALID,0,VALID,88.0907,VALID,0,VALID,25.3,VALID,335,VALID,0.119922,
2009-10-13, 01:40:05,VALID,1003.46,VALID,0,VALID,88.1822,VALID,0,VALID,25.2592,VALID,335,VALID,0,
2009-10-13, 01:41:05,VALID,1003.45,VALID,0,VALID,88.3424,VALID,0,VALID,25.2416,VALID,335,VALID,0,
2009-10-13, 01:42:05,VALID,1003.43,VALID,0,VALID,88.5408,VALID,0,VALID,25.2027,VALID,335,VALID,0.178125,
2009-10-13, 01:43:05,VALID,1003.46,VALID,0,VALID,88.6934,VALID,0,VALID,25.1423,VALID,335,VALID,0.129688,
2009-10-13, 01:44:05,VALID,1003.45,VALID,0,VALID,88.8383,VALID,0,VALID,25.1442,VALID,335,VALID,0,
2009-10-13, 01:45:05,VALID,1003.44,VALID,0,VALID,88.9756,VALID,0,VALID,25.1034,VALID,335,VALID,0.281641,
2009-10-13, 01:46:05,VALID,1003.46,VALID,0,VALID,88.9833,VALID,0,VALID,25.1442,VALID,335,VALID,0.240625,
2009-10-13, 01:47:05,VALID,1003.45,VALID,0,VALID,89.0061,VALID,0,VALID,25.1248,VALID,335,VALID,0.315234,
2009-10-13, 01:48:05,VALID,1003.44,VALID,0,VALID,89.0824,VALID,0,VALID,25.1248,VALID,335,VALID,0.2875,
2009-10-13, 01:49:05,VALID,1003.44,VALID,0,VALID,89.1664,VALID,0,VALID,25.0644,VALID,335,VALID,0.192578,
2009-10-13, 01:50:05,VALID,1003.41,VALID,0,VALID,89.2655,VALID,0,VALID,25.0663,VALID,335,VALID,0.0839844,
2009-10-13, 01:51:05,VALID,1003.4,VALID,0,VALID,89.3342,VALID,0,VALID,25.0079,VALID,335,VALID,0.399219,
2009-10-13, 01:52:05,VALID,1003.4,VALID,0,VALID,89.6622,VALID,0,VALID,24.9282,VALID,335,VALID,0.520312,
2009-10-13, 01:53:05,VALID,1003.39,VALID,0,VALID,90.1047,VALID,0,VALID,24.9106,VALID,335,VALID,0.461719,
2009-10-13, 01:54:05,VALID,1003.35,VALID,0,VALID,90.3107,VALID,0,VALID,24.9106,VALID,336,VALID,0.483984,
2009-10-13, 01:55:05,VALID,1003.34,VALID,0,VALID,90.3946,VALID,0,VALID,24.8716,VALID,336,VALID,0.587891,
2009-10-13, 01:56:05,VALID,1003.31,VALID,0,VALID,90.6158,VALID,0,VALID,24.8716,VALID,337,VALID,0.608594,
2009-10-13, 01:57:05,VALID,1003.31,VALID,0,VALID,90.4785,VALID,0,VALID,24.8911,VALID,340,VALID,0.475391,
2009-10-13, 01:58:05,VALID,1003.28,VALID,0,VALID,90.4862,VALID,0,VALID,24.8716,VALID,340,VALID,0.423047,
2009-10-13, 01:59:05,VALID,1003.23,VALID,0,VALID,90.5167,VALID,0,VALID,24.8522,VALID,347,VALID,0.651563,
2009-10-13, 02:00:05,VALID,1003.23,VALID,0,VALID,90.5624,VALID,0,VALID,24.8522,VALID,345,VALID,0.692187,
2009-10-13, 02:01:05,VALID,1003.24,VALID,0,VALID,90.7074,VALID,0,VALID,24.8716,VALID,342,VALID,0.715625,
2009-10-13, 02:02:05,VALID,1003.2,VALID,0,VALID,90.6082,VALID,0,VALID,24.9106,VALID,348,VALID,0.721484,
2009-10-13, 02:03:05,VALID,1003.23,VALID,0,VALID,90.4633,VALID,0,VALID,24.93,VALID,348,VALID,0.471484,
2009-10-13, 02:04:05,VALID,1003.2,VALID,0,VALID,90.3259,VALID,0,VALID,24.9495,VALID,350,VALID,0.530469,
2009-10-13, 02:05:05,VALID,1003.19,VALID,0,VALID,90.2573,VALID,0,VALID,24.9495,VALID,352,VALID,0.535156,
2009-10-13, 02:06:05,VALID,1003.14,VALID,0,VALID,90.1886,VALID,0,VALID,24.9671,VALID,352,VALID,0.423047,
2009-10-13, 02:07:05,VALID,1003.14,VALID,0,VALID,90.0132,VALID,0,VALID,25.0079,VALID,352,VALID,0.264844,
2009-10-13, 02:08:05,VALID,1003.14,VALID,0,VALID,89.9369,VALID,0,VALID,24.9866,VALID,352,VALID,0.234766,
2009-10-13, 02:09:05,VALID,1003.12,VALID,0,VALID,89.8606,VALID,0,VALID,24.9885,VALID,352,VALID,0.275391,
2009-10-13, 02:10:05,VALID,1003.09,VALID,0,VALID,89.9369,VALID,0,VALID,24.969,VALID,352,VALID,0.267969,
2009-10-13, 02:11:05,VALID,1003.06,VALID,0,VALID,90.1276,VALID,0,VALID,24.9106,VALID,352,VALID,0.447266,
2009-10-13, 02:12:05,VALID,1003.06,VALID,0,VALID,90.12,VALID,0,VALID,24.8503,VALID,352,VALID,0.507813,
2009-10-13, 02:13:05,VALID,1003.05,VALID,0,VALID,90.1352,VALID,0,VALID,24.7937,VALID,352,VALID,0.507813,
2009-10-13, 02:14:05,VALID,1003.07,VALID,0,VALID,90.6387,VALID,0,VALID,24.7761,VALID,352,VALID,0.394922,
2009-10-13, 02:15:05,VALID,1003.04,VALID,0,VALID,91.0125,VALID,0,VALID,24.714,VALID,352,VALID,0.557031,
2009-10-13, 02:16:05,VALID,1003.05,VALID,0,VALID,91.2109,VALID,0,VALID,24.7159,VALID,347,VALID,0.6625,
2009-10-13, 02:17:05,VALID,1003.06,VALID,0,VALID,91.3787,VALID,0,VALID,24.7353,VALID,350,VALID,0.632813,
2009-10-13, 02:18:05,VALID,1003.02,VALID,0,VALID,91.3253,VALID,0,VALID,24.7335,VALID,349,VALID,0.512891,
2009-10-13, 02:19:05,VALID,1003.01,VALID,0,VALID,91.3253,VALID,0,VALID,24.7937,VALID,326,VALID,0.665234,
2009-10-13, 02:20:05,VALID,1003.01,VALID,0,VALID,91.1956,VALID,0,VALID,24.8346,VALID,358,VALID,0.465625,
2009-10-13, 02:21:05,VALID,1002.98,VALID,0,VALID,91.127,VALID,0,VALID,24.8327,VALID,359,VALID,0.487891,
2009-10-13, 02:22:05,VALID,1002.96,VALID,0,VALID,90.9439,VALID,0,VALID,24.8522,VALID,358,VALID,0.475781,
2009-10-13, 02:23:05,VALID,1002.94,VALID,0,VALID,90.8447,VALID,0,VALID,24.8308,VALID,353,VALID,0.629687,
2009-10-13, 02:24:05,VALID,1002.93,VALID,0,VALID,90.8447,VALID,0,VALID,24.8716,VALID,352,VALID,0.693359,
2009-10-13, 02:25:05,VALID,1002.91,VALID,0,VALID,90.7684,VALID,0,VALID,24.8911,VALID,352,VALID,0.762891,
2009-10-13, 02:26:05,VALID,1002.93,VALID,0,VALID,90.7379,VALID,0,VALID,24.9106,VALID,349,VALID,0.557813,
2009-10-13, 02:27:05,VALID,1002.91,VALID,0,VALID,90.6387,VALID,0,VALID,24.9495,VALID,349,VALID,0.18125,
2009-10-13, 02:28:05,VALID,1002.91,VALID,0,VALID,90.4327,VALID,0,VALID,25.0079,VALID,338,VALID,0.719531,
2009-10-13, 02:29:05,VALID,1002.92,VALID,0,VALID,90.1963,VALID,0,VALID,25.0469,VALID,337,VALID,0.257813,
2009-10-13, 02:30:05,VALID,1002.89,VALID,0,VALID,89.9216,VALID,0,VALID,25.045,VALID,345,VALID,0.617188,
2009-10-13, 02:31:05,VALID,1002.87,VALID,0,VALID,89.9064,VALID,0,VALID,25.0858,VALID,352,VALID,1.10977,
2009-10-13, 02:32:05,VALID,1002.84,VALID,0,VALID,89.7614,VALID,0,VALID,25.1248,VALID,354,VALID,0.65625,
2009-10-13, 02:33:05,VALID,1002.83,VALID,0,VALID,89.5707,VALID,0,VALID,25.1442,VALID,344,VALID,0.762109,
2009-10-13, 02:34:05,VALID,1002.81,VALID,0,VALID,89.5859,VALID,0,VALID,25.1637,VALID,345,VALID,0.205078,
2009-10-13, 02:35:05,VALID,1002.84,VALID,0,VALID,89.5173,VALID,0,VALID,25.1832,VALID,345,VALID,0.0539063,
2009-10-13, 02:36:05,VALID,1002.85,VALID,0,VALID,89.5783,VALID,0,VALID,25.1832,VALID,347,VALID,0.690625,
2009-10-13, 02:37:05,VALID,1002.84,VALID,0,VALID,89.5325,VALID,0,VALID,25.2416,VALID,343,VALID,0.684766,
2009-10-13, 02:38:05,VALID,1002.83,VALID,0,VALID,89.3952,VALID,0,VALID,25.2806,VALID,344,VALID,0.172656,
2009-10-13, 02:39:05,VALID,1002.83,VALID,0,VALID,89.3113,VALID,0,VALID,25.2786,VALID,345,VALID,0.425391,
2009-10-13, 02:40:05,VALID,1002.78,VALID,0,VALID,89.235,VALID,0,VALID,25.3195,VALID,347,VALID,0.101563,
2009-10-13, 02:41:05,VALID,1002.77,VALID,0,VALID,89.2579,VALID,0,VALID,25.339,VALID,357,VALID,0.655469,
2009-10-13, 02:42:05,VALID,1002.76,VALID,0,VALID,89.0443,VALID,0,VALID,25.3565,VALID,358,VALID,0.133594,
2009-10-13, 02:43:05,VALID,1002.75,VALID,0,VALID,88.7925,VALID,0,VALID,25.3993,VALID,357,VALID,0.411328,
2009-10-13, 02:44:05,VALID,1002.76,VALID,0,VALID,88.6934,VALID,0,VALID,25.4188,VALID,356,VALID,0.4125,
2009-10-13, 02:45:05,VALID,1002.74,VALID,0,VALID,88.6857,VALID,0,VALID,25.4383,VALID,342,VALID,0.796094,
2009-10-13, 02:46:05,VALID,1002.73,VALID,0,VALID,88.6323,VALID,0,VALID,25.4577,VALID,343,VALID,0.665625,
2009-10-13, 02:47:05,VALID,1002.78,VALID,0,VALID,88.5408,VALID,0,VALID,25.4772,VALID,346,VALID,0.769922,
2009-10-13, 02:48:05,VALID,1002.75,VALID,0,VALID,88.4874,VALID,0,VALID,25.4772,VALID,347,VALID,0.322266,
2009-10-13, 02:49:05,VALID,1002.74,VALID,0,VALID,88.5103,VALID,0,VALID,25.4772,VALID,347,VALID,0.739453,
2009-10-13, 02:50:05,VALID,1002.73,VALID,0,VALID,88.5789,VALID,0,VALID,25.4772,VALID,358,VALID,0.467969,
2009-10-13, 02:51:05,VALID,1002.73,VALID,0,VALID,88.5332,VALID,0,VALID,25.4967,VALID,357,VALID,0,
2009-10-13, 02:52:05,VALID,1002.72,VALID,0,VALID,88.5789,VALID,0,VALID,25.4772,VALID,357,VALID,0.476172,
2009-10-13, 02:53:05,VALID,1002.7,VALID,0,VALID,88.5942,VALID,0,VALID,25.4967,VALID,358,VALID,0.751172,
2009-10-13, 02:54:05,VALID,1002.7,VALID,0,VALID,88.6247,VALID,0,VALID,25.4948,VALID,343,VALID,0.552344,
2009-10-13, 02:55:05,VALID,1002.71,VALID,0,VALID,88.5713,VALID,0,VALID,25.5162,VALID,338,VALID,0.609375,
2009-10-13, 02:56:05,VALID,1002.72,VALID,0,VALID,88.556,VALID,0,VALID,25.5357,VALID,341,VALID,0.0875,
2009-10-13, 02:57:05,VALID,1002.72,VALID,0,VALID,88.6171,VALID,0,VALID,25.5162,VALID,341,VALID,0.142578,
2009-10-13, 02:58:05,VALID,1002.69,VALID,0,VALID,88.701,VALID,0,VALID,25.5142,VALID,344,VALID,0.611719,
2009-10-13, 02:59:05,VALID,1002.72,VALID,0,VALID,88.7468,VALID,0,VALID,25.5123,VALID,357,VALID,1.03945,
2009-10-13, 03:00:05,VALID,1002.69,VALID,0,VALID,88.7162,VALID,0,VALID,25.5532,VALID,346,VALID,0.753125,
2009-10-13, 03:01:05,VALID,1002.69,VALID,0,VALID,88.6247,VALID,0.100563,VALID,25.5532,VALID,355,VALID,0.753516,
2009-10-13, 03:02:05,VALID,1002.68,VALID,0,VALID,88.6552,VALID,0,VALID,25.5532,VALID,351,VALID,0.701953,
2009-10-13, 03:03:05,VALID,1002.71,VALID,0,VALID,88.7468,VALID,0,VALID,25.5337,VALID,348,VALID,0.719141,
2009-10-13, 03:04:05,VALID,1002.69,VALID,0,VALID,88.701,VALID,0,VALID,25.5337,VALID,352,VALID,0.786328,
2009-10-13, 03:05:05,VALID,1002.67,VALID,0,VALID,88.6857,VALID,0,VALID,25.5532,VALID,3,VALID,1.32344,
2009-10-13, 03:06:05,VALID,1002.67,VALID,0,VALID,88.5179,VALID,0,VALID,25.5727,VALID,350,VALID,0.612109,
2009-10-13, 03:07:05,VALID,1002.69,VALID,0,VALID,88.3882,VALID,0,VALID,25.5921,VALID,340,VALID,0.128516,
2009-10-13, 03:08:05,VALID,1002.69,VALID,0,VALID,88.3577,VALID,0,VALID,25.5921,VALID,340,VALID,0,
2009-10-13, 03:09:05,VALID,1002.66,VALID,0,VALID,88.3806,VALID,0,VALID,25.5727,VALID,344,VALID,0.450781,
2009-10-13, 03:10:05,VALID,1002.68,VALID,0,VALID,88.4187,VALID,0,VALID,25.5727,VALID,357,VALID,0.231641,
2009-10-13, 03:11:05,VALID,1002.68,VALID,0,VALID,88.4492,VALID,0,VALID,25.5532,VALID,358,VALID,0.652734,
2009-10-13, 03:12:05,VALID,1002.68,VALID,0,VALID,88.4721,VALID,0,VALID,25.5727,VALID,336,VALID,0.224219,
2009-10-13, 03:13:05,VALID,1002.69,VALID,0,VALID,88.434,VALID,0,VALID,25.5513,VALID,279,VALID,0.402734,
2009-10-13, 03:14:05,VALID,1002.7,VALID,0,VALID,88.4035,VALID,0,VALID,25.5318,VALID,279,VALID,0.470703,
2009-10-13, 03:15:05,VALID,1002.71,VALID,0,VALID,88.4264,VALID,0,VALID,25.5318,VALID,280,VALID,0.00117188,
2009-10-13, 03:16:05,VALID,1002.71,VALID,0,VALID,88.4798,VALID,0,VALID,25.5337,VALID,360,VALID,0.48125,
2009-10-13, 03:17:05,VALID,1002.71,VALID,0,VALID,88.495,VALID,0,VALID,25.5337,VALID,350,VALID,0.946484,
2009-10-13, 03:18:05,VALID,1002.66,VALID,0,VALID,88.434,VALID,0,VALID,25.5532,VALID,354,VALID,0.556641,
2009-10-13, 03:19:05,VALID,1002.67,VALID,0,VALID,88.3501,VALID,0,VALID,25.5532,VALID,350,VALID,0.991406,
2009-10-13, 03:20:05,VALID,1002.65,VALID,0,VALID,88.2661,VALID,0,VALID,25.5727,VALID,357,VALID,0.909375,
2009-10-13, 03:21:05,VALID,1002.68,VALID,0,VALID,88.167,VALID,0,VALID,25.5513,VALID,353,VALID,0.330469,
2009-10-13, 03:22:05,VALID,1002.69,VALID,0,VALID,88.1517,VALID,0,VALID,25.5727,VALID,353,VALID,0.407422,
2009-10-13, 03:23:05,VALID,1002.68,VALID,0,VALID,88.3272,VALID,0,VALID,25.5532,VALID,349,VALID,1.14297,
2009-10-13, 03:24:05,VALID,1002.71,VALID,0,VALID,88.2814,VALID,0,VALID,25.5727,VALID,348,VALID,0.667188,
2009-10-13, 03:25:05,VALID,1002.71,VALID,0,VALID,88.3501,VALID,0,VALID,25.5318,VALID,343,VALID,0.428125,
2009-10-13, 03:26:05,VALID,1002.69,VALID,0,VALID,88.4187,VALID,0,VALID,25.5142,VALID,344,VALID,0.21875,
2009-10-13, 03:27:04,VALID,1002.72,VALID,0,VALID,88.4721,VALID,0,VALID,25.4714,VALID,344,VALID,0.06875,
2009-10-13, 03:28:04,VALID,1002.73,VALID,0,VALID,88.556,VALID,0,VALID,25.4753,VALID,310,VALID,0.425,
2009-10-13, 03:29:04,VALID,1002.75,VALID,0,VALID,88.6628,VALID,0,VALID,25.4558,VALID,310,VALID,0.0125,
2009-10-13, 03:30:04,VALID,1002.77,VALID,0,VALID,88.8383,VALID,0,VALID,25.3974,VALID,310,VALID,0.199219,
2009-10-13, 03:31:04,VALID,1002.77,VALID,0,VALID,89.0061,VALID,0,VALID,25.3584,VALID,310,VALID,0.33125,
2009-10-13, 03:32:04,VALID,1002.77,VALID,0,VALID,89.1664,VALID,0,VALID,25.3584,VALID,355,VALID,0.717969,
2009-10-13, 03:33:04,VALID,1002.78,VALID,0,VALID,89.4334,VALID,0,VALID,25.339,VALID,355,VALID,1.01758,
2009-10-13, 03:34:04,VALID,1002.79,VALID,0,VALID,89.2503,VALID,0,VALID,25.3584,VALID,340,VALID,0.789063,
2009-10-13, 03:35:04,VALID,1002.8,VALID,0,VALID,89.0214,VALID,0,VALID,25.3584,VALID,354,VALID,1.03203,
2009-10-13, 03:36:04,VALID,1002.78,VALID,0,VALID,89.0061,VALID,0,VALID,25.339,VALID,3,VALID,0.454688,
2009-10-13, 03:37:04,VALID,1002.79,VALID,0,VALID,89.029,VALID,0,VALID,25.3176,VALID,293,VALID,1.1668,
2009-10-13, 03:38:04,VALID,1002.8,VALID,0,VALID,88.8765,VALID,0,VALID,25.3798,VALID,358,VALID,0.814453,
2009-10-13, 03:39:04,VALID,1002.81,VALID,0,VALID,88.7773,VALID,0,VALID,25.3584,VALID,324,VALID,0.428906,
2009-10-13, 03:40:04,VALID,1002.82,VALID,0,VALID,88.8002,VALID,0,VALID,25.3584,VALID,10,VALID,0.223047,
2009-10-13, 03:41:04,VALID,1002.82,VALID,0,VALID,88.6934,VALID,0,VALID,25.3584,VALID,352,VALID,1.43281,
2009-10-13, 03:42:04,VALID,1002.81,VALID,0,VALID,88.5103,VALID,0,VALID,25.3779,VALID,351,VALID,1.42266,
2009-10-13, 03:43:04,VALID,1002.82,VALID,0,VALID,88.2814,VALID,0,VALID,25.3779,VALID,355,VALID,0.676172,
2009-10-13, 03:44:04,VALID,1002.82,VALID,0,VALID,88.1212,VALID,0,VALID,25.376,VALID,330,VALID,0.833203,
2009-10-13, 03:45:04,VALID,1002.81,VALID,0,VALID,88.1441,VALID,0,VALID,25.3974,VALID,322,VALID,0.278125,